Satellite: NOAA-11
Catalog number: 19531
Epoch time:      10216.82113331
Element set:    0170
Inclination:      098.7688 deg
RA of node:       305.0184 deg
Eccentricity:    0.0011933
Arg of perigee:   013.5208 deg
Mean anomaly:     346.6291 deg
Mean motion:   14.14930572 rev/day
Decay rate:      -2.23e-06 rev/day^2
Epoch rev:           12801
Checksum:              261

Satellite: NOAA-12
Catalog number: 21263
Epoch time:      10216.70750616
Element set:    0659
Inclination:      098.7653 deg
RA of node:       229.8615 deg
Eccentricity:    0.0012948
Arg of perigee:   029.7367 deg
Mean anomaly:     330.4548 deg
Mean motion:   14.25646952 rev/day
Decay rate:        9.5e-07 rev/day^2
Epoch rev:           99931
Checksum:              335

Satellite: MET-3/5
Catalog number: 21655
Epoch time:      10217.78784836
Element set:     880
Inclination:      082.5566 deg
RA of node:       273.5933 deg
Eccentricity:    0.0012503
Arg of perigee:   220.6249 deg
Mean anomaly:     139.3903 deg
Mean motion:   13.17025058 rev/day
Decay rate:        5.1e-07 rev/day^2
Epoch rev:           91220
Checksum:              296

Satellite: MET-2/21
Catalog number: 22782
Epoch time:      10216.52462894
Element set:    0848
Inclination:      082.5451 deg
RA of node:       214.0890 deg
Eccentricity:    0.0020717
Arg of perigee:   267.2173 deg
Mean anomaly:     092.6617 deg
Mean motion:   13.83645350 rev/day
Decay rate:       -2.7e-07 rev/day^2
Epoch rev:           85476
Checksum:              310

Satellite: OKEAN-4
Catalog number: 23317
Epoch time:      10216.70493698
Element set:    0304
Inclination:      082.5423 deg
RA of node:       308.5750 deg
Eccentricity:    0.0024023
Arg of perigee:   082.7054 deg
Mean anomaly:     277.6904 deg
Mean motion:   14.82843405 rev/day
Decay rate:       3.39e-06 rev/day^2
Epoch rev:           85364
Checksum:              297

Satellite: NOAA-14
Catalog number: 23455
Epoch time:      10216.69119177
Element set:    0150
Inclination:      098.8770 deg
RA of node:       297.0941 deg
Eccentricity:    0.0010301
Arg of perigee:   096.9595 deg
Mean anomaly:     263.2763 deg
Mean motion:   14.13790628 rev/day
Decay rate:       -2.0e-07 rev/day^2
Epoch rev:           80435
Checksum:              304

Satellite: NOAA-15
Catalog number: 25338
Epoch time:      10216.88880024
Element set:    0474
Inclination:      098.6223 deg
RA of node:       202.9477 deg
Eccentricity:    0.0009720
Arg of perigee:   295.9037 deg
Mean anomaly:     064.1143 deg
Mean motion:   14.24845350 rev/day
Decay rate:        1.8e-07 rev/day^2
Epoch rev:           63568
Checksum:              307

Satellite: RESURS
Catalog number: 25394
Epoch time:      10217.80723580
Element set:     570
Inclination:      098.3041 deg
RA of node:       233.1850 deg
Eccentricity:    0.0002579
Arg of perigee:   075.3273 deg
Mean anomaly:     284.8193 deg
Mean motion:   14.24206914 rev/day
Decay rate:       -2.1e-07 rev/day^2
Epoch rev:           62741
Checksum:              278

Satellite: FENGYUN1
Catalog number: 25730
Epoch time:      10216.76304999
Element set:    0105
Inclination:      098.7865 deg
RA of node:       180.4543 deg
Eccentricity:    0.0022887
Arg of perigee:   125.7046 deg
Mean anomaly:     234.6255 deg
Mean motion:   14.08229772 rev/day
Decay rate:       5.89e-06 rev/day^2
Epoch rev:           57852
Checksum:              328

Satellite: OKEAN-0
Catalog number: 25860
Epoch time:      10217.77942968
Element set:      64
Inclination:      097.8364 deg
RA of node:       188.8033 deg
Eccentricity:    0.0000749
Arg of perigee:   052.0657 deg
Mean anomaly:     308.0615 deg
Mean motion:   14.73652662 rev/day
Decay rate:        4.9e-07 rev/day^2
Epoch rev:           59420
Checksum:              316

Satellite: NOAA-16
Catalog number: 26536
Epoch time:      10216.88804197
Element set:    0951
Inclination:      099.1691 deg
RA of node:       235.5022 deg
Eccentricity:    0.0010316
Arg of perigee:   196.3854 deg
Mean anomaly:     163.6972 deg
Mean motion:   14.12571681 rev/day
Decay rate:       2.44e-06 rev/day^2
Epoch rev:           50870
Checksum:              310

Satellite: NOAA-17
Catalog number: 27453
Epoch time:      10216.89453720
Element set:    0947
Inclination:      098.4269 deg
RA of node:       265.3684 deg
Eccentricity:    0.0011711
Arg of perigee:   000.4182 deg
Mean anomaly:     359.7010 deg
Mean motion:   14.24178084 rev/day
Decay rate:        1.2e-07 rev/day^2
Epoch rev:           42163
Checksum:              289

Satellite: NOAA-18
Catalog number: 28654
Epoch time:      10216.93247241
Element set:    0432
Inclination:      098.9512 deg
RA of node:       163.0615 deg
Eccentricity:    0.0013401
Arg of perigee:   277.7821 deg
Mean anomaly:     082.1838 deg
Mean motion:   14.11375306 rev/day
Decay rate:      -1.36e-06 rev/day^2
Epoch rev:           26831
Checksum:              286

